Location: 237-227 Winthrop St, Rehoboth, MA 02769, USA
(41.8544°N, 71.2370°W)
Time: 03:03:35
(UTC-04:00)

ISS - Visible Passes

Search period start: 28 September 2022 00:00
Search period end: 08 October 2022 00:00
Orbit: 414 x 417 km, 51.6° (Epoch: 28 September)

Date Brightness Start Highest point End Pass type
(mag) Time Alt. Az. Time Alt. Az. Time Alt. Az.
28 Sep -2.3 19:58:52 10° NW 20:01:43 25° NNE 20:02:10 24° NE visible
29 Sep -1.9 19:10:14 10° NW 19:12:48 20° NNE 19:15:21 10° ENE visible
29 Sep -1.6 20:46:36 10° NW 20:48:14 26° NW 20:48:14 26° NW visible
30 Sep -3.3 19:57:54 10° NW 20:01:10 46° NNE 20:01:26 45° NE visible
01 Oct -2.7 19:09:14 10° NW 19:12:18 31° NNE 19:14:42 14° E visible
01 Oct -1.5 20:45:54 10° WNW 20:47:35 24° W 20:47:35 24° W visible
02 Oct -3.7 19:57:00 10° WNW 20:00:20 70° SW 20:00:55 55° SSE visible
03 Oct -3.7 19:08:11 10° NW 19:11:32 68° NNE 19:14:19 14° ESE visible
03 Oct -0.9 20:45:56 10° W 20:47:13 14° WSW 20:47:13 14° WSW visible
04 Oct -1.8 19:56:25 10° WNW 19:59:13 25° SW 20:00:45 18° S visible
05 Oct -2.7 19:07:17 10° WNW 19:10:29 44° SW 19:13:40 10° SSE visible
07 Oct -0.9 19:06:57 10° W 19:09:08 16° SW 19:11:19 10° S visible
